Voltar ao catálogo

COSMOS 2251 DEB

AtivoLEO
NORAD 37101·DEBRIS·🇷🇺 Russia

Lançado Jun 16, 1993 de Plesetsk Cosmodrome

Loading…

Próximas Passagens (próximas 24 horas)

TLE

AtualizadoSource: Space-Track

Época: Sep 14, 2026, 10:49 UTC

1 37101U 93036BFX 26257.45088754  .00003007  00000-0  52400-3 0  9990
2 37101  74.0295 281.9222 0045448 296.5608  63.0906 14.67827215697142

Acompanhe COSMOS 2251 DEB em tempo real com AllMySat

Download on the App Store